M I D A S
Marine Information and Data Acquisition System
Tripno 1586 of the Zeeleeuw from 2008-10-13 07:42:22 to 2008-10-13 14:03:36
Back to CruiseResearch ActivitiesStationsMapUnderway DataData graphs

EquipmentUnitsComment
TimeDGPSUTC
LatitudeDGPSDM.mWGS84
LongitudeDGPSDM.mWGS84
HeadingGyrodeg 
SOGDGPSknotsSpeed over ground
COGDGPSdegCourse over ground
DepthEcho soundermeters200 kHz
Missing or incorrect values are displayed as -999
Navigation data collected by the RV Zeeleeuw from 2008-10-13 07:42:22 to 2008-10-13 14:03:36
                                                                                    Next 1000 lines
Time Latitude Longitude Heading SOG COG Depth
2008-10-13 07:42:40 51°13.667 2°55.899 113 4 293 -999
2008-10-13 07:42:50 51°13.673 2°55.88 113 4 293 -999
2008-10-13 07:43:00 51°13.68 2°55.861 120.7 5 301 -999
2008-10-13 07:43:10 51°13.688 2°55.842 120.7 5 301 -999
2008-10-13 07:43:20 51°13.696 2°55.823 120.7 5 301 -999
2008-10-13 07:43:30 51°13.704 2°55.803 120.7 5 301 -999
2008-10-13 07:43:40 51°13.713 2°55.784 120.7 5 301 -999
2008-10-13 07:43:50 51°13.723 2°55.765 120.7 5 301 -999
2008-10-13 07:44:00 51°13.733 2°55.746 132 5.59 312 -999
2008-10-13 07:44:10 51°13.744 2°55.728 132 5.59 312 -999
2008-10-13 07:44:20 51°13.756 2°55.711 132 5.59 312 -999
2008-10-13 07:44:30 51°13.768 2°55.694 132 5.59 312 -999
2008-10-13 07:44:40 51°13.781 2°55.679 132 5.59 312 -999
2008-10-13 07:44:50 51°13.794 2°55.665 132 5.59 312 -999
2008-10-13 07:45:00 51°13.808 2°55.653 155 5.79 334 -999
2008-10-13 07:45:10 51°13.822 2°55.643 155 5.79 334 -999
2008-10-13 07:45:20 51°13.837 2°55.635 155 5.79 334 -999
2008-10-13 07:45:30 51°13.852 2°55.631 155 5.79 334 -999
2008-10-13 07:45:40 51°13.866 2°55.629 155 5.79 334 -999
2008-10-13 07:45:50 51°13.88 2°55.631 155 5.79 334 -999
2008-10-13 07:46:00 51°13.893 2°55.636 199 4.7 17 -999
2008-10-13 07:46:10 51°13.904 2°55.642 199 4.7 17 -999
2008-10-13 07:46:20 51°13.914 2°55.649 199 4.7 17 -999
2008-10-13 07:46:30 51°13.922 2°55.656 199 4.7 17 -999
2008-10-13 07:46:40 51°13.929 2°55.663 199 4.7 17 -999
2008-10-13 07:46:50 51°13.935 2°55.669 199 4.7 17 -999
2008-10-13 07:47:00 51°13.938 2°55.673 228.5 1.3 32 -999
2008-10-13 07:47:10 51°13.94 2°55.674 228.5 1.3 32 -999
2008-10-13 07:47:20 51°13.941 2°55.671 228.5 1.3 32 -999
2008-10-13 07:47:30 51°13.942 2°55.662 228.5 1.3 32 -999
2008-10-13 07:47:40 51°13.945 2°55.65 228.5 1.3 32 -999
2008-10-13 07:47:50 51°13.951 2°55.635 228.5 1.3 32 -999
2008-10-13 07:48:00 51°13.961 2°55.619 309.6 5.29 314 -999
2008-10-13 07:48:10 51°13.973 2°55.601 309.6 5.29 314 -999
2008-10-13 07:48:20 51°13.986 2°55.581 309.6 5.29 314 -999
2008-10-13 07:48:30 51°14.001 2°55.559 309.6 5.29 314 -999
2008-10-13 07:48:40 51°14.018 2°55.536 309.6 5.29 314 -999
2008-10-13 07:48:50 51°14.037 2°55.514 309.6 5.29 314 -999
2008-10-13 07:49:00 51°14.057 2°55.491 323.3 8.9 325 -999
2008-10-13 07:49:10 51°14.078 2°55.467 323.3 8.9 325 -999
2008-10-13 07:49:20 51°14.099 2°55.445 323.3 8.9 325 -999
2008-10-13 07:49:30 51°14.12 2°55.422 323.3 8.9 325 -999
2008-10-13 07:49:40 51°14.142 2°55.4 323.3 8.9 325 -999
2008-10-13 07:49:50 51°14.164 2°55.377 323.3 8.9 325 -999
2008-10-13 07:50:00 51°14.185 2°55.353 327 9.4 325 -999
2008-10-13 07:50:10 51°14.206 2°55.328 327 9.4 325 -999
2008-10-13 07:50:20 51°14.227 2°55.302 327 9.4 325 -999
2008-10-13 07:50:30 51°14.246 2°55.275 327 9.4 325 -999
2008-10-13 07:50:40 51°14.266 2°55.246 327 9.4 325 -999
2008-10-13 07:50:50 51°14.285 2°55.215 327 9.4 325 -999
2008-10-13 07:51:00 51°14.303 2°55.183 312.6 9.8 312 -999
2008-10-13 07:51:10 51°14.321 2°55.151 312.6 9.8 312 -999
2008-10-13 07:51:20 51°14.338 2°55.116 312.6 9.8 312 -999
2008-10-13 07:51:30 51°14.355 2°55.081 312.6 9.8 312 -999
2008-10-13 07:51:40 51°14.372 2°55.045 312.6 9.8 312 -999
2008-10-13 07:51:50 51°14.385 2°55.005 312.6 9.8 312 -999
2008-10-13 07:52:00 51°14.398 2°54.964 297.6 10.5 294 -999
2008-10-13 07:52:10 51°14.408 2°54.919 297.6 10.5 294 -999
2008-10-13 07:52:20 51°14.416 2°54.872 297.6 10.5 294 -999
2008-10-13 07:52:30 51°14.423 2°54.822 297.6 10.5 294 -999
2008-10-13 07:52:40 51°14.427 2°54.769 297.6 10.5 294 -999
2008-10-13 07:52:50 51°14.428 2°54.715 297.6 10.5 294 -999
2008-10-13 07:53:00 51°14.428 2°54.66 271.8 12.5 268 -999
2008-10-13 07:53:10 51°14.424 2°54.605 271.8 12.5 268 -999
2008-10-13 07:53:20 51°14.417 2°54.551 271.8 12.5 268 -999
2008-10-13 07:53:30 51°14.407 2°54.497 271.8 12.5 268 -999
2008-10-13 07:53:40 51°14.396 2°54.444 271.8 12.5 268 -999
2008-10-13 07:53:50 51°14.381 2°54.394 271.8 12.5 268 -999
2008-10-13 07:54:00 51°14.365 2°54.344 243.5 12.59 243 -999
2008-10-13 07:54:10 51°14.348 2°54.295 243.5 12.59 243 -999
2008-10-13 07:54:20 51°14.331 2°54.245 243.5 12.59 243 -999
2008-10-13 07:54:30 51°14.314 2°54.196 243.5 12.59 243 -999
2008-10-13 07:54:40 51°14.296 2°54.147 243.5 12.59 243 -999
2008-10-13 07:54:50 51°14.28 2°54.097 243.5 12.59 243 -999
2008-10-13 07:55:00 51°14.263 2°54.047 242.3 12.8 242 -999
2008-10-13 07:55:10 51°14.247 2°53.997 242.3 12.8 242 -999
2008-10-13 07:55:20 51°14.231 2°53.946 242.3 12.8 242 -999
2008-10-13 07:55:30 51°14.214 2°53.896 242.3 12.8 242 -999
2008-10-13 07:55:40 51°14.198 2°53.845 242.3 12.8 242 -999
2008-10-13 07:55:50 51°14.182 2°53.795 242.3 12.8 242 -999
2008-10-13 07:56:00 51°14.165 2°53.744 242.8 12.8 243 -999
2008-10-13 07:56:10 51°14.148 2°53.694 242.8 12.8 243 -999
2008-10-13 07:56:20 51°14.131 2°53.645 242.8 12.8 243 -999
2008-10-13 07:56:30 51°14.114 2°53.595 242.8 12.8 243 -999
2008-10-13 07:56:40 51°14.096 2°53.546 242.8 12.8 243 -999
2008-10-13 07:56:50 51°14.078 2°53.496 242.8 12.8 243 -999
2008-10-13 07:57:00 51°14.06 2°53.447 239.6 12.9 240 -999
2008-10-13 07:57:10 51°14.042 2°53.398 239.6 12.9 240 -999
2008-10-13 07:57:20 51°14.024 2°53.348 239.6 12.9 240 -999
2008-10-13 07:57:30 51°14.006 2°53.299 239.6 12.9 240 -999
2008-10-13 07:57:40 51°13.988 2°53.25 239.6 12.9 240 -999
2008-10-13 07:57:50 51°13.97 2°53.201 239.6 12.9 240 -999
2008-10-13 07:58:00 51°13.952 2°53.151 239.4 12.9 240 -999
2008-10-13 07:58:10 51°13.934 2°53.102 239.4 12.9 240 -999
2008-10-13 07:58:20 51°13.916 2°53.053 239.4 12.9 240 -999
2008-10-13 07:58:30 51°13.899 2°53.003 239.4 12.9 240 -999
2008-10-13 07:58:40 51°13.882 2°52.952 239.4 12.9 240 -999
2008-10-13 07:58:50 51°13.865 2°52.901 239.4 12.9 240 -999
2008-10-13 07:59:00 51°13.848 2°52.85 242.8 13 242 -999
2008-10-13 07:59:10 51°13.832 2°52.8 242.8 13 242 -999
2008-10-13 07:59:20 51°13.815 2°52.749 242.8 13 242 -999
2008-10-13 07:59:30 51°13.798 2°52.698 242.8 13 242 -999
2008-10-13 07:59:40 51°13.782 2°52.647 242.8 13 242 -999
2008-10-13 07:59:50 51°13.765 2°52.596 242.8 13 242 -999
2008-10-13 08:00:00 51°13.748 2°52.545 242.5 13 242 -999
2008-10-13 08:00:10 51°13.731 2°52.495 242.5 13 242 -999
2008-10-13 08:00:20 51°13.714 2°52.444 242.5 13 242 -999
2008-10-13 08:00:30 51°13.697 2°52.393 242.5 13 242 -999
2008-10-13 08:00:40 51°13.68 2°52.342 242.5 13 242 -999
2008-10-13 08:00:50 51°13.663 2°52.291 242.5 13 242 -999
2008-10-13 08:01:00 51°13.647 2°52.24 242.4 13 242 -999
2008-10-13 08:01:10 51°13.63 2°52.19 242.4 13 242 -999
2008-10-13 08:01:20 51°13.613 2°52.139 242.4 13 242 -999
2008-10-13 08:01:30 51°13.596 2°52.088 242.4 13 242 -999
2008-10-13 08:01:40 51°13.579 2°52.037 242.4 13 242 -999
2008-10-13 08:01:50 51°13.562 2°51.987 242.4 13 242 -999
2008-10-13 08:02:00 51°13.545 2°51.936 242.4 13 242 -999
2008-10-13 08:02:10 51°13.528 2°51.885 242.4 13 242 -999
2008-10-13 08:02:20 51°13.511 2°51.834 242.4 13 242 -999
2008-10-13 08:02:30 51°13.494 2°51.784 242.4 13 242 -999
2008-10-13 08:02:40 51°13.477 2°51.733 242.4 13 242 -999
2008-10-13 08:02:50 51°13.46 2°51.682 242.4 13 242 -999
2008-10-13 08:03:00 51°13.443 2°51.631 242.5 13 242 -999
2008-10-13 08:03:10 51°13.426 2°51.581 242.5 13 242 -999
2008-10-13 08:03:20 51°13.409 2°51.53 242.5 13 242 -999
2008-10-13 08:03:30 51°13.391 2°51.479 242.5 13 242 -999
2008-10-13 08:03:40 51°13.374 2°51.428 242.5 13 242 -999
2008-10-13 08:03:50 51°13.358 2°51.377 242.5 13 242 -999
2008-10-13 08:04:00 51°13.341 2°51.326 242.9 13 243 -999
2008-10-13 08:04:10 51°13.324 2°51.275 242.9 13 243 -999
2008-10-13 08:04:20 51°13.307 2°51.224 242.9 13 243 -999
2008-10-13 08:04:30 51°13.29 2°51.173 242.9 13 243 -999
2008-10-13 08:04:40 51°13.273 2°51.122 242.9 13 243 -999
2008-10-13 08:04:50 51°13.255 2°51.072 242.9 13 243 -999
2008-10-13 08:05:00 51°13.237 2°51.021 240.1 13.09 241 -999
2008-10-13 08:05:10 51°13.221 2°50.97 240.1 13.09 241 -999
2008-10-13 08:05:20 51°13.204 2°50.919 240.1 13.09 241 -999
2008-10-13 08:05:30 51°13.189 2°50.867 240.1 13.09 241 -999
2008-10-13 08:05:40 51°13.173 2°50.815 240.1 13.09 241 -999
2008-10-13 08:05:50 51°13.157 2°50.763 240.1 13.09 241 -999
2008-10-13 08:06:00 51°13.141 2°50.711 244.4 13.09 244 -999
2008-10-13 08:06:10 51°13.125 2°50.659 244.4 13.09 244 -999
2008-10-13 08:06:20 51°13.11 2°50.607 244.4 13.09 244 -999
2008-10-13 08:06:30 51°13.094 2°50.555 244.4 13.09 244 -999
2008-10-13 08:06:40 51°13.078 2°50.503 244.4 13.09 244 -999
2008-10-13 08:06:50 51°13.062 2°50.451 244.4 13.09 244 -999
2008-10-13 08:07:00 51°13.047 2°50.399 244.3 13 244 -999
2008-10-13 08:07:10 51°13.031 2°50.348 244.3 13 244 -999
2008-10-13 08:07:20 51°13.015 2°50.295 244.3 13 244 -999
2008-10-13 08:07:30 51°12.999 2°50.244 244.3 13 244 -999
2008-10-13 08:07:40 51°12.984 2°50.192 244.3 13 244 -999
2008-10-13 08:07:50 51°12.968 2°50.14 244.3 13 244 -999
2008-10-13 08:08:00 51°12.952 2°50.088 244.6 13 245 -999
2008-10-13 08:08:10 51°12.937 2°50.036 244.6 13 245 -999
2008-10-13 08:08:20 51°12.921 2°49.984 244.6 13 245 -999
2008-10-13 08:08:30 51°12.905 2°49.932 244.6 13 245 -999
2008-10-13 08:08:40 51°12.889 2°49.881 244.6 13 245 -999
2008-10-13 08:08:50 51°12.873 2°49.829 244.6 13 245 -999
2008-10-13 08:09:00 51°12.858 2°49.777 243.8 13 244 -999
2008-10-13 08:09:10 51°12.842 2°49.725 243.8 13 244 -999
2008-10-13 08:09:20 51°12.826 2°49.673 243.8 13 244 -999
2008-10-13 08:09:30 51°12.811 2°49.621 243.8 13 244 -999
2008-10-13 08:09:40 51°12.795 2°49.569 243.8 13 244 -999
2008-10-13 08:09:50 51°12.779 2°49.517 243.8 13 244 -999
2008-10-13 08:10:00 51°12.764 2°49.465 244 13 244 -999
2008-10-13 08:10:10 51°12.748 2°49.413 244 13 244 -999
2008-10-13 08:10:20 51°12.733 2°49.362 244 13 244 -999
2008-10-13 08:10:30 51°12.717 2°49.31 244 13 244 -999
2008-10-13 08:10:40 51°12.702 2°49.258 244 13 244 -999
2008-10-13 08:10:50 51°12.686 2°49.207 244 13 244 -999
2008-10-13 08:11:00 51°12.671 2°49.155 244.5 13 245 -999
2008-10-13 08:11:10 51°12.655 2°49.103 244.5 13 245 -999
2008-10-13 08:11:20 51°12.64 2°49.051 244.5 13 245 -999
2008-10-13 08:11:30 51°12.625 2°49 244.5 13 245 -999
2008-10-13 08:11:40 51°12.609 2°48.948 244.5 13 245 -999
2008-10-13 08:11:50 51°12.594 2°48.897 244.5 13 245 -999
2008-10-13 08:12:00 51°12.579 2°48.846 244.4 12.9 244 -999
2008-10-13 08:12:10 51°12.563 2°48.794 244.4 12.9 244 -999
2008-10-13 08:12:20 51°12.548 2°48.743 244.4 12.9 244 -999
2008-10-13 08:12:30 51°12.532 2°48.692 244.4 12.9 244 -999
2008-10-13 08:12:40 51°12.517 2°48.64 244.4 12.9 244 -999
2008-10-13 08:12:50 51°12.502 2°48.589 244.4 12.9 244 -999
2008-10-13 08:13:00 51°12.486 2°48.538 244.5 12.9 244 -999
2008-10-13 08:13:10 51°12.471 2°48.486 244.5 12.9 244 -999
2008-10-13 08:13:20 51°12.455 2°48.435 244.5 12.9 244 -999
2008-10-13 08:13:30 51°12.44 2°48.383 244.5 12.9 244 -999
2008-10-13 08:13:40 51°12.425 2°48.331 244.5 12.9 244 -999
2008-10-13 08:13:50 51°12.409 2°48.28 244.5 12.9 244 -999
2008-10-13 08:14:00 51°12.394 2°48.228 244 13 245 -999
2008-10-13 08:14:10 51°12.378 2°48.176 244 13 245 -999
2008-10-13 08:14:20 51°12.363 2°48.125 244 13 245 -999
2008-10-13 08:14:30 51°12.347 2°48.073 244 13 245 -999
2008-10-13 08:14:40 51°12.331 2°48.021 244 13 245 -999
2008-10-13 08:14:50 51°12.316 2°47.969 244 13 245 -999
2008-10-13 08:15:00 51°12.301 2°47.917 244.1 13 245 -999
2008-10-13 08:15:10 51°12.285 2°47.865 244.1 13 245 -999
2008-10-13 08:15:20 51°12.27 2°47.813 244.1 13 245 -999
2008-10-13 08:15:30 51°12.255 2°47.761 244.1 13 245 -999
2008-10-13 08:15:40 51°12.24 2°47.709 244.1 13 245 -999
2008-10-13 08:15:50 51°12.224 2°47.657 244.1 13 245 -999
2008-10-13 08:16:00 51°12.208 2°47.605 243.8 13 245 -999
2008-10-13 08:16:10 51°12.194 2°47.553 243.8 13 245 -999
2008-10-13 08:16:20 51°12.18 2°47.5 243.8 13 245 -999
2008-10-13 08:16:30 51°12.166 2°47.447 243.8 13 245 -999
2008-10-13 08:16:40 51°12.152 2°47.394 243.8 13 245 -999
2008-10-13 08:16:50 51°12.138 2°47.342 243.8 13 245 -999
2008-10-13 08:17:00 51°12.125 2°47.289 247.4 13 248 -999
2008-10-13 08:17:10 51°12.111 2°47.236 247.4 13 248 -999
2008-10-13 08:17:20 51°12.097 2°47.183 247.4 13 248 -999
2008-10-13 08:17:30 51°12.084 2°47.13 247.4 13 248 -999
2008-10-13 08:17:40 51°12.069 2°47.078 247.4 13 248 -999
2008-10-13 08:17:50 51°12.054 2°47.026 247.4 13 248 -999
2008-10-13 08:18:00 51°12.039 2°46.974 244.4 13 245 -999
2008-10-13 08:18:10 51°12.024 2°46.923 244.4 13 245 -999
2008-10-13 08:18:20 51°12.009 2°46.871 244.4 13 245 -999
2008-10-13 08:18:30 51°11.994 2°46.819 244.4 13 245 -999
2008-10-13 08:18:40 51°11.979 2°46.767 244.4 13 245 -999
2008-10-13 08:18:50 51°11.964 2°46.715 244.4 13 245 -999
2008-10-13 08:19:00 51°11.949 2°46.663 244.6 13 246 -999
2008-10-13 08:19:10 51°11.934 2°46.611 244.6 13 246 -999
2008-10-13 08:19:20 51°11.92 2°46.558 244.6 13 246 -999
2008-10-13 08:19:30 51°11.905 2°46.506 244.6 13 246 -999
2008-10-13 08:19:40 51°11.89 2°46.455 244.6 13 246 -999
2008-10-13 08:19:50 51°11.876 2°46.403 244.6 13 246 -999
2008-10-13 08:20:00 51°11.861 2°46.35 245.5 12.9 247 -999
2008-10-13 08:20:10 51°11.847 2°46.298 245.5 12.9 247 -999
2008-10-13 08:20:20 51°11.832 2°46.246 245.5 12.9 247 -999
2008-10-13 08:20:30 51°11.818 2°46.195 245.5 12.9 247 -999
2008-10-13 08:20:40 51°11.804 2°46.143 245.5 12.9 247 -999
2008-10-13 08:20:50 51°11.789 2°46.092 245.5 12.9 247 -999
2008-10-13 08:21:00 51°11.775 2°46.04 245.8 12.8 247 -999
2008-10-13 08:21:10 51°11.763 2°45.987 245.8 12.8 247 -999
2008-10-13 08:21:20 51°11.752 2°45.934 245.8 12.8 247 -999
2008-10-13 08:21:30 51°11.742 2°45.88 245.8 12.8 247 -999
2008-10-13 08:21:40 51°11.733 2°45.825 245.8 12.8 247 -999
2008-10-13 08:21:50 51°11.725 2°45.771 245.8 12.8 247 -999
2008-10-13 08:22:00 51°11.718 2°45.716 257.6 12.69 258 -999
2008-10-13 08:22:10 51°11.711 2°45.661 257.6 12.69 258 -999
2008-10-13 08:22:20 51°11.704 2°45.606 257.6 12.69 258 -999
2008-10-13 08:22:30 51°11.697 2°45.551 257.6 12.69 258 -999
2008-10-13 08:22:40 51°11.69 2°45.496 257.6 12.69 258 -999
2008-10-13 08:22:50 51°11.682 2°45.442 257.6 12.69 258 -999
2008-10-13 08:23:00 51°11.675 2°45.387 258.3 12.69 258 -999
2008-10-13 08:23:10 51°11.668 2°45.332 258.3 12.69 258 -999
2008-10-13 08:23:20 51°11.662 2°45.277 258.3 12.69 258 -999
2008-10-13 08:23:30 51°11.656 2°45.222 258.3 12.69 258 -999
2008-10-13 08:23:40 51°11.651 2°45.166 258.3 12.69 258 -999
2008-10-13 08:23:50 51°11.646 2°45.111 258.3 12.69 258 -999
2008-10-13 08:24:00 51°11.64 2°45.056 261.3 12.69 261 -999
2008-10-13 08:24:10 51°11.634 2°45.001 261.3 12.69 261 -999
2008-10-13 08:24:20 51°11.629 2°44.946 261.3 12.69 261 -999
2008-10-13 08:24:30 51°11.624 2°44.891 261.3 12.69 261 -999
2008-10-13 08:24:40 51°11.618 2°44.836 261.3 12.69 261 -999
2008-10-13 08:24:50 51°11.612 2°44.781 261.3 12.69 261 -999
2008-10-13 08:25:00 51°11.606 2°44.727 260.3 12.5 261 -999
2008-10-13 08:25:10 51°11.601 2°44.672 260.3 12.5 261 -999
2008-10-13 08:25:20 51°11.595 2°44.618 260.3 12.5 261 -999
2008-10-13 08:25:30 51°11.589 2°44.563 260.3 12.5 261 -999
2008-10-13 08:25:40 51°11.583 2°44.508 260.3 12.5 261 -999
2008-10-13 08:25:50 51°11.577 2°44.454 260.3 12.5 261 -999
2008-10-13 08:26:00 51°11.571 2°44.399 260.1 12.5 260 -999
2008-10-13 08:26:10 51°11.565 2°44.345 260.1 12.5 260 -999
2008-10-13 08:26:20 51°11.559 2°44.29 260.1 12.5 260 -999
2008-10-13 08:26:30 51°11.553 2°44.236 260.1 12.5 260 -999
2008-10-13 08:26:40 51°11.547 2°44.181 260.1 12.5 260 -999
2008-10-13 08:26:50 51°11.54 2°44.128 260.1 12.5 260 -999
2008-10-13 08:27:00 51°11.533 2°44.074 258.5 12.4 259 -999
2008-10-13 08:27:10 51°11.525 2°44.021 258.5 12.4 259 -999
2008-10-13 08:27:20 51°11.517 2°43.967 258.5 12.4 259 -999
2008-10-13 08:27:30 51°11.51 2°43.914 258.5 12.4 259 -999
2008-10-13 08:27:40 51°11.503 2°43.86 258.5 12.4 259 -999
2008-10-13 08:27:50 51°11.497 2°43.806 258.5 12.4 259 -999
2008-10-13 08:28:00 51°11.492 2°43.752 260.5 12.4 261 -999
2008-10-13 08:28:10 51°11.487 2°43.698 260.5 12.4 261 -999
2008-10-13 08:28:20 51°11.482 2°43.644 260.5 12.4 261 -999
2008-10-13 08:28:30 51°11.477 2°43.589 260.5 12.4 261 -999
2008-10-13 08:28:40 51°11.472 2°43.535 260.5 12.4 261 -999
2008-10-13 08:28:50 51°11.466 2°43.481 260.5 12.4 261 -999
2008-10-13 08:29:00 51°11.461 2°43.427 260.8 12.5 261 -999
2008-10-13 08:29:10 51°11.456 2°43.373 260.8 12.5 261 -999
2008-10-13 08:29:20 51°11.45 2°43.319 260.8 12.5 261 -999
2008-10-13 08:29:30 51°11.445 2°43.265 260.8 12.5 261 -999
2008-10-13 08:29:40 51°11.439 2°43.211 260.8 12.5 261 -999
2008-10-13 08:29:50 51°11.434 2°43.157 260.8 12.5 261 -999
2008-10-13 08:30:00 51°11.428 2°43.103 261.3 12.3 259 -999
2008-10-13 08:30:10 51°11.421 2°43.05 261.3 12.3 259 -999
2008-10-13 08:30:20 51°11.414 2°42.997 261.3 12.3 259 -999
2008-10-13 08:30:30 51°11.405 2°42.944 261.3 12.3 259 -999
2008-10-13 08:30:40 51°11.397 2°42.891 261.3 12.3 259 -999
2008-10-13 08:30:50 51°11.388 2°42.838 261.3 12.3 259 -999
2008-10-13 08:31:00 51°11.38 2°42.785 255.6 12.4 256 -999
2008-10-13 08:31:10 51°11.371 2°42.732 255.6 12.4 256 -999
2008-10-13 08:31:20 51°11.363 2°42.68 255.6 12.4 256 -999
2008-10-13 08:31:30 51°11.354 2°42.627 255.6 12.4 256 -999
2008-10-13 08:31:40 51°11.345 2°42.574 255.6 12.4 256 -999
2008-10-13 08:31:50 51°11.337 2°42.521 255.6 12.4 256 -999
2008-10-13 08:32:00 51°11.327 2°42.469 255.4 12.3 252 -999
2008-10-13 08:32:10 51°11.316 2°42.417 255.4 12.3 252 -999
2008-10-13 08:32:20 51°11.305 2°42.366 255.4 12.3 252 -999
2008-10-13 08:32:30 51°11.293 2°42.315 255.4 12.3 252 -999
2008-10-13 08:32:40 51°11.28 2°42.265 255.4 12.3 252 -999
2008-10-13 08:32:50 51°11.268 2°42.214 255.4 12.3 252 -999
2008-10-13 08:33:00 51°11.255 2°42.164 248.4 12.3 247 -999
2008-10-13 08:33:10 51°11.242 2°42.114 248.4 12.3 247 -999
2008-10-13 08:33:20 51°11.228 2°42.064 248.4 12.3 247 -999
2008-10-13 08:33:30 51°11.213 2°42.015 248.4 12.3 247 -999
2008-10-13 08:33:40 51°11.198 2°41.966 248.4 12.3 247 -999
2008-10-13 08:33:50 51°11.182 2°41.918 248.4 12.3 247 -999
2008-10-13 08:34:00 51°11.166 2°41.87 241.5 12.4 243 -999
2008-10-13 08:34:10 51°11.151 2°41.821 241.5 12.4 243 -999
2008-10-13 08:34:20 51°11.136 2°41.772 241.5 12.4 243 -999
2008-10-13 08:34:30 51°11.121 2°41.723 241.5 12.4 243 -999
2008-10-13 08:34:40 51°11.106 2°41.674 241.5 12.4 243 -999
2008-10-13 08:34:50 51°11.091 2°41.625 241.5 12.4 243 -999
2008-10-13 08:35:00 51°11.076 2°41.576 243.5 12.3 244 -999
2008-10-13 08:35:10 51°11.061 2°41.527 243.5 12.3 244 -999
2008-10-13 08:35:20 51°11.046 2°41.478 243.5 12.3 244 -999
2008-10-13 08:35:30 51°11.031 2°41.428 243.5 12.3 244 -999
2008-10-13 08:35:40 51°11.017 2°41.379 243.5 12.3 244 -999
2008-10-13 08:35:50 51°11.002 2°41.33 243.5 12.3 244 -999
2008-10-13 08:36:00 51°10.988 2°41.281 244.8 12.3 245 -999
2008-10-13 08:36:10 51°10.973 2°41.232 244.8 12.3 245 -999
2008-10-13 08:36:20 51°10.959 2°41.182 244.8 12.3 245 -999
2008-10-13 08:36:30 51°10.944 2°41.133 244.8 12.3 245 -999
2008-10-13 08:36:40 51°10.928 2°41.085 244.8 12.3 245 -999
2008-10-13 08:36:50 51°10.913 2°41.036 244.8 12.3 245 -999
2008-10-13 08:37:00 51°10.898 2°40.987 243.5 12.4 245 -999
2008-10-13 08:37:10 51°10.884 2°40.938 243.5 12.4 245 -999
2008-10-13 08:37:20 51°10.869 2°40.888 243.5 12.4 245 -999
2008-10-13 08:37:30 51°10.855 2°40.839 243.5 12.4 245 -999
2008-10-13 08:37:40 51°10.84 2°40.79 243.5 12.4 245 -999
2008-10-13 08:37:50 51°10.825 2°40.741 243.5 12.4 245 -999
2008-10-13 08:38:00 51°10.811 2°40.691 244.5 12.3 245 -999
2008-10-13 08:38:10 51°10.796 2°40.642 244.5 12.3 245 -999
2008-10-13 08:38:20 51°10.782 2°40.593 244.5 12.3 245 -999
2008-10-13 08:38:30 51°10.766 2°40.545 244.5 12.3 245 -999
2008-10-13 08:38:40 51°10.751 2°40.497 244.5 12.3 245 -999
2008-10-13 08:38:50 51°10.736 2°40.454 244.5 12.3 245 -999
2008-10-13 08:39:00 51°10.718 2°40.402 241 12.3 241 -999
2008-10-13 08:39:10 51°10.704 2°40.359 241 12.3 241 -999
2008-10-13 08:39:20 51°10.687 2°40.306 241 12.3 241 -999
2008-10-13 08:39:30 51°10.67 2°40.253 241 12.3 241 -999
2008-10-13 08:39:40 51°10.656 2°40.209 241 12.3 241 -999
2008-10-13 08:39:50 51°10.64 2°40.161 241 12.3 241 -999
2008-10-13 08:40:00 51°10.623 2°40.109 242 12.19 242 -999
2008-10-13 08:40:10 51°10.609 2°40.066 242 12.19 242 -999
2008-10-13 08:40:20 51°10.593 2°40.018 242 12.19 242 -999
2008-10-13 08:40:30 51°10.578 2°39.969 242 12.19 242 -999
2008-10-13 08:40:40 51°10.563 2°39.921 242 12.19 242 -999
2008-10-13 08:40:50 51°10.546 2°39.868 242 12.19 242 -999
2008-10-13 08:41:00 51°10.531 2°39.819 242.3 12.19 244 -999
2008-10-13 08:41:10 51°10.515 2°39.771 242.3 12.19 244 -999
2008-10-13 08:41:20 51°10.502 2°39.728 242.3 12.19 244 -999
2008-10-13 08:41:30 51°10.487 2°39.679 242.3 12.19 244 -999
2008-10-13 08:41:40 51°10.472 2°39.63 242.3 12.19 244 -999
2008-10-13 08:41:50 51°10.457 2°39.582 242.3 12.19 244 -999
2008-10-13 08:42:00 51°10.44 2°39.528 242.6 12.3 244 -999
2008-10-13 08:42:10 51°10.425 2°39.48 242.6 12.3 244 -999
2008-10-13 08:42:20 51°10.411 2°39.431 242.6 12.3 244 -999
2008-10-13 08:42:30 51°10.398 2°39.387 242.6 12.3 244 -999
2008-10-13 08:42:40 51°10.383 2°39.338 242.6 12.3 244 -999
2008-10-13 08:42:50 51°10.368 2°39.29 242.6 12.3 244 -999
2008-10-13 08:43:00 51°10.353 2°39.241 243.1 12.3 245 -999
2008-10-13 08:43:10 51°10.339 2°39.192 243.1 12.3 245 -999
2008-10-13 08:43:20 51°10.324 2°39.143 243.1 12.3 245 -999
2008-10-13 08:43:30 51°10.31 2°39.094 243.1 12.3 245 -999
2008-10-13 08:43:40 51°10.294 2°39.04 243.1 12.3 245 -999
2008-10-13 08:43:50 51°10.281 2°38.995 243.1 12.3 245 -999
2008-10-13 08:44:00 51°10.268 2°38.945 246 12.3 248 -999
2008-10-13 08:44:10 51°10.255 2°38.895 246 12.3 248 -999
2008-10-13 08:44:20 51°10.242 2°38.844 246 12.3 248 -999
2008-10-13 08:44:30 51°10.23 2°38.794 246 12.3 248 -999
2008-10-13 08:44:40 51°10.215 2°38.739 246 12.3 248 -999
2008-10-13 08:44:50 51°10.203 2°38.694 246 12.3 248 -999
2008-10-13 08:45:00 51°10.19 2°38.644 246.5 12.4 247 -999
2008-10-13 08:45:10 51°10.176 2°38.594 246.5 12.4 247 -999
2008-10-13 08:45:20 51°10.163 2°38.544 246.5 12.4 247 -999
2008-10-13 08:45:30 51°10.148 2°38.488 246.5 12.4 247 -999
2008-10-13 08:45:40 51°10.136 2°38.443 246.5 12.4 247 -999
2008-10-13 08:45:50 51°10.122 2°38.393 246.5 12.4 247 -999
2008-10-13 08:46:00 51°10.109 2°38.343 245.3 12.4 247 -999
2008-10-13 08:46:10 51°10.095 2°38.294 245.3 12.4 247 -999
2008-10-13 08:46:20 51°10.082 2°38.244 245.3 12.4 247 -999
2008-10-13 08:46:30 51°10.066 2°38.189 245.3 12.4 247 -999
2008-10-13 08:46:40 51°10.052 2°38.145 245.3 12.4 247 -999
2008-10-13 08:46:50 51°10.037 2°38.097 245.3 12.4 247 -999
2008-10-13 08:47:00 51°10.022 2°38.048 242.3 12.3 244 -999
2008-10-13 08:47:10 51°10.007 2°38 242.3 12.3 244 -999
2008-10-13 08:47:20 51°9.991 2°37.946 242.3 12.3 244 -999
2008-10-13 08:47:30 51°9.977 2°37.896 242.3 12.3 244 -999
2008-10-13 08:47:40 51°9.965 2°37.851 242.3 12.3 244 -999
2008-10-13 08:47:50 51°9.952 2°37.801 242.3 12.3 244 -999
2008-10-13 08:48:00 51°9.938 2°37.751 245.9 12.3 247 -999
2008-10-13 08:48:10 51°9.925 2°37.701 245.9 12.3 247 -999
2008-10-13 08:48:20 51°9.911 2°37.651 245.9 12.3 247 -999
2008-10-13 08:48:30 51°9.896 2°37.596 245.9 12.3 247 -999
2008-10-13 08:48:40 51°9.883 2°37.547 245.9 12.3 247 -999
2008-10-13 08:48:50 51°9.87 2°37.502 245.9 12.3 247 -999
2008-10-13 08:49:00 51°9.856 2°37.453 244.8 12.3 247 -999
2008-10-13 08:49:10 51°9.842 2°37.403 244.8 12.3 247 -999
2008-10-13 08:49:20 51°9.828 2°37.354 244.8 12.3 247 -999
2008-10-13 08:49:30 51°9.813 2°37.3 244.8 12.3 247 -999
2008-10-13 08:49:40 51°9.799 2°37.25 244.8 12.3 247 -999
2008-10-13 08:49:50 51°9.786 2°37.206 244.8 12.3 247 -999
2008-10-13 08:50:00 51°9.773 2°37.156 245.4 12.19 247 -999
2008-10-13 08:50:10 51°9.759 2°37.107 245.4 12.19 247 -999
2008-10-13 08:50:20 51°9.744 2°37.053 245.4 12.19 247 -999
2008-10-13 08:50:30 51°9.729 2°37.004 245.4 12.19 247 -999
2008-10-13 08:50:40 51°9.714 2°36.957 245.4 12.19 247 -999
2008-10-13 08:50:50 51°9.7 2°36.913 245.4 12.19 247 -999
2008-10-13 08:51:00 51°9.685 2°36.866 241.6 12.19 244 -999
2008-10-13 08:51:10 51°9.67 2°36.818 241.6 12.19 244 -999
2008-10-13 08:51:20 51°9.653 2°36.765 241.6 12.19 244 -999
2008-10-13 08:51:30 51°9.639 2°36.716 241.6 12.19 244 -999
2008-10-13 08:51:40 51°9.627 2°36.672 241.6 12.19 244 -999
2008-10-13 08:51:50 51°9.614 2°36.623 241.6 12.19 244 -999
2008-10-13 08:52:00 51°9.599 2°36.569 245.4 12.09 246 -999
2008-10-13 08:52:10 51°9.585 2°36.52 245.4 12.09 246 -999
2008-10-13 08:52:20 51°9.571 2°36.471 245.4 12.09 246 -999
2008-10-13 08:52:30 51°9.559 2°36.427 245.4 12.09 246 -999
2008-10-13 08:52:40 51°9.544 2°36.373 245.4 12.09 246 -999
2008-10-13 08:52:50 51°9.531 2°36.323 245.4 12.09 246 -999
2008-10-13 08:53:00 51°9.519 2°36.279 245.4 12.09 246 -999
2008-10-13 08:53:10 51°9.505 2°36.231 245.4 12.09 246 -999
2008-10-13 08:53:20 51°9.492 2°36.182 245.4 12.09 246 -999
2008-10-13 08:53:30 51°9.478 2°36.134 245.4 12.09 246 -999
2008-10-13 08:53:40 51°9.463 2°36.08 245.4 12.09 246 -999
2008-10-13 08:53:50 51°9.45 2°36.032 245.4 12.09 246 -999
2008-10-13 08:54:00 51°9.437 2°35.983 244.6 12 246 -999
2008-10-13 08:54:10 51°9.423 2°35.934 244.6 12 246 -999
2008-10-13 08:54:20 51°9.409 2°35.886 244.6 12 246 -999
2008-10-13 08:54:30 51°9.396 2°35.838 244.6 12 246 -999
2008-10-13 08:54:40 51°9.382 2°35.79 244.6 12 246 -999
2008-10-13 08:54:50 51°9.368 2°35.742 244.6 12 246 -999
2008-10-13 08:55:00 51°9.354 2°35.7 243.5 11.9 243 -999
2008-10-13 08:55:10 51°9.339 2°35.653 243.5 11.9 243 -999
2008-10-13 08:55:20 51°9.324 2°35.606 243.5 11.9 243 -999
2008-10-13 08:55:30 51°9.309 2°35.56 243.5 11.9 243 -999
2008-10-13 08:55:40 51°9.292 2°35.509 243.5 11.9 243 -999
2008-10-13 08:55:50 51°9.277 2°35.462 243.5 11.9 243 -999
2008-10-13 08:56:00 51°9.262 2°35.415 241.9 11.9 243 -999
2008-10-13 08:56:10 51°9.247 2°35.369 241.9 11.9 243 -999
2008-10-13 08:56:20 51°9.232 2°35.322 241.9 11.9 243 -999
2008-10-13 08:56:30 51°9.217 2°35.275 241.9 11.9 243 -999
2008-10-13 08:56:40 51°9.203 2°35.228 241.9 11.9 243 -999
2008-10-13 08:56:50 51°9.19 2°35.185 241.9 11.9 243 -999
2008-10-13 08:57:00 51°9.176 2°35.138 242.9 11.8 244 -999
2008-10-13 08:57:10 51°9.16 2°35.086 242.9 11.8 244 -999
2008-10-13 08:57:20 51°9.146 2°35.039 242.9 11.8 244 -999
2008-10-13 08:57:30 51°9.132 2°34.992 242.9 11.8 244 -999
2008-10-13 08:57:40 51°9.119 2°34.95 242.9 11.8 244 -999
2008-10-13 08:57:50 51°9.104 2°34.902 242.9 11.8 244 -999
2008-10-13 08:58:00 51°9.092 2°34.861 242.8 10.3 245 -999
2008-10-13 08:58:10 51°9.081 2°34.824 242.8 10.3 245 -999
2008-10-13 08:58:20 51°9.073 2°34.795 242.8 10.3 245 -999
2008-10-13 08:58:30 51°9.064 2°34.763 242.8 10.3 245 -999
2008-10-13 08:58:40 51°9.056 2°34.736 242.8 10.3 245 -999
2008-10-13 08:58:50 51°9.049 2°34.712 242.8 10.3 245 -999
2008-10-13 08:59:00 51°9.043 2°34.691 244.3 5.7 246 -999
2008-10-13 08:59:10 51°9.037 2°34.668 244.3 5.7 246 -999
2008-10-13 08:59:20 51°9.031 2°34.644 244.3 5.7 246 -999
2008-10-13 08:59:30 51°9.025 2°34.624 244.3 5.7 246 -999
2008-10-13 08:59:40 51°9.02 2°34.604 244.3 5.7 246 -999
2008-10-13 08:59:50 51°9.016 2°34.586 244.3 5.7 246 -999
2008-10-13 09:00:00 51°9.009 2°34.566 243 4.7 243 -999
2008-10-13 09:00:10 51°9.003 2°34.548 243 4.7 243 -999
2008-10-13 09:00:20 51°8.997 2°34.53 243 4.7 243 -999
2008-10-13 09:00:30 51°8.99 2°34.513 243 4.7 243 -999
2008-10-13 09:00:40 51°8.983 2°34.497 243 4.7 243 -999
2008-10-13 09:00:50 51°8.976 2°34.48 243 4.7 243 -999
2008-10-13 09:01:00 51°8.97 2°34.463 236 4.5 239 -999
2008-10-13 09:01:10 51°8.964 2°34.447 236 4.5 239 -999
2008-10-13 09:01:20 51°8.957 2°34.43 236 4.5 239 -999
2008-10-13 09:01:30 51°8.951 2°34.414 236 4.5 239 -999
2008-10-13 09:01:40 51°8.945 2°34.399 236 4.5 239 -999
2008-10-13 09:01:50 51°8.938 2°34.38 236 4.5 239 -999
2008-10-13 09:02:00 51°8.932 2°34.364 238 4.29 241 -999
2008-10-13 09:02:10 51°8.926 2°34.347 238 4.29 241 -999
2008-10-13 09:02:20 51°8.919 2°34.331 238 4.29 241 -999
2008-10-13 09:02:30 51°8.913 2°34.318 238 4.29 241 -999
2008-10-13 09:02:40 51°8.906 2°34.301 238 4.29 241 -999
2008-10-13 09:02:50 51°8.899 2°34.286 238 4.29 241 -999
2008-10-13 09:03:00 51°8.893 2°34.272 233.6 3.79 234 -999
2008-10-13 09:03:10 51°8.887 2°34.259 233.6 3.79 234 -999
2008-10-13 09:03:20 51°8.881 2°34.247 233.6 3.79 234 -999
2008-10-13 09:03:30 51°8.876 2°34.238 233.6 3.79 234 -999
2008-10-13 09:03:40 51°8.873 2°34.23 233.6 3.79 234 -999
2008-10-13 09:03:50 51°8.871 2°34.226 233.6 3.79 234 -999
2008-10-13 09:04:00 51°8.872 2°34.225 245.4 0.1 76 -999
2008-10-13 09:04:10 51°8.872 2°34.227 245.4 0.1 76 -999
2008-10-13 09:04:20 51°8.873 2°34.229 245.4 0.1 76 -999
2008-10-13 09:04:30 51°8.874 2°34.23 245.4 0.1 76 -999
2008-10-13 09:04:40 51°8.875 2°34.232 245.4 0.1 76 -999
2008-10-13 09:04:50 51°8.876 2°34.234 245.4 0.1 76 -999
2008-10-13 09:05:00 51°8.877 2°34.236 276 0.59 45 -999
2008-10-13 09:05:10 51°8.878 2°34.239 276 0.59 45 -999
2008-10-13 09:05:20 51°8.88 2°34.241 276 0.59 45 -999
2008-10-13 09:05:30 51°8.881 2°34.243 276 0.59 45 -999
2008-10-13 09:05:40 51°8.882 2°34.245 276 0.59 45 -999
2008-10-13 09:05:50 51°8.884 2°34.247 276 0.59 45 -999
2008-10-13 09:06:00 51°8.885 2°34.248 295.6 0.69 46 -999
2008-10-13 09:06:10 51°8.886 2°34.25 295.6 0.69 46 -999
2008-10-13 09:06:20 51°8.887 2°34.252 295.6 0.69 46 -999
2008-10-13 09:06:30 51°8.889 2°34.255 295.6 0.69 46 -999
2008-10-13 09:06:40 51°8.89 2°34.257 295.6 0.69 46 -999
2008-10-13 09:06:50 51°8.892 2°34.26 295.6 0.69 46 -999
2008-10-13 09:07:00 51°8.894 2°34.263 307.6 0.8 41 -999
2008-10-13 09:07:10 51°8.896 2°34.265 307.6 0.8 41 -999
2008-10-13 09:07:20 51°8.898 2°34.267 307.6 0.8 41 -999
2008-10-13 09:07:30 51°8.899 2°34.269 307.6 0.8 41 -999
2008-10-13 09:07:40 51°8.901 2°34.271 307.6 0.8 41 -999
2008-10-13 09:07:50 51°8.903 2°34.274 307.6 0.8 41 -999
2008-10-13 09:08:00 51°8.905 2°34.277 311.3 0.9 43 -999
2008-10-13 09:08:10 51°8.907 2°34.279 311.3 0.9 43 -999
2008-10-13 09:08:20 51°8.909 2°34.283 311.3 0.9 43 -999
2008-10-13 09:08:30 51°8.911 2°34.285 311.3 0.9 43 -999
2008-10-13 09:08:40 51°8.913 2°34.288 311.3 0.9 43 -999
2008-10-13 09:08:50 51°8.915 2°34.291 311.3 0.9 43 -999
2008-10-13 09:09:00 51°8.917 2°34.294 309.6 1 40 -999
2008-10-13 09:09:10 51°8.919 2°34.296 309.6 1 40 -999
2008-10-13 09:09:20 51°8.92 2°34.299 309.6 1 40 -999
2008-10-13 09:09:30 51°8.923 2°34.302 309.6 1 40 -999
2008-10-13 09:09:40 51°8.925 2°34.304 309.6 1 40 -999
2008-10-13 09:09:50 51°8.927 2°34.308 309.6 1 40 -999
2008-10-13 09:10:00 51°8.929 2°34.311 305.6 1 41 -999
2008-10-13 09:10:10 51°8.931 2°34.314 305.6 1 41 -999
2008-10-13 09:10:20 51°8.933 2°34.317 305.6 1 41 -999
2008-10-13 09:10:30 51°8.934 2°34.319 305.6 1 41 -999
2008-10-13 09:10:40 51°8.937 2°34.323 305.6 1 41 -999
2008-10-13 09:10:50 51°8.939 2°34.326 305.6 1 41 -999
2008-10-13 09:11:00 51°8.941 2°34.329 301.1 1 40 -999
2008-10-13 09:11:10 51°8.943 2°34.332 301.1 1 40 -999
2008-10-13 09:11:20 51°8.945 2°34.335 301.1 1 40 -999
2008-10-13 09:11:30 51°8.947 2°34.337 301.1 1 40 -999
2008-10-13 09:11:40 51°8.949 2°34.341 301.1 1 40 -999
2008-10-13 09:11:50 51°8.951 2°34.344 301.1 1 40 -999
2008-10-13 09:12:00 51°8.954 2°34.347 293.6 1 42 -999
2008-10-13 09:12:10 51°8.956 2°34.351 293.6 1 42 -999
2008-10-13 09:12:20 51°8.958 2°34.352 293.6 1 42 -999
2008-10-13 09:12:30 51°8.96 2°34.348 293.6 1 42 -999
2008-10-13 09:12:40 51°8.961 2°34.338 293.6 1 42 -999
2008-10-13 09:12:50 51°8.957 2°34.326 293.6 1 42 -999
2008-10-13 09:13:00 51°8.951 2°34.316 237.9 3.5 218 -999
2008-10-13 09:13:10 51°8.94 2°34.307 237.9 3.5 218 -999
2008-10-13 09:13:20 51°8.928 2°34.301 237.9 3.5 218 -999
2008-10-13 09:13:30 51°8.911 2°34.293 237.9 3.5 218 -999
2008-10-13 09:13:40 51°8.895 2°34.284 237.9 3.5 218 -999
2008-10-13 09:13:50 51°8.877 2°34.275 237.9 3.5 218 -999
2008-10-13 09:14:00 51°8.858 2°34.266 200 7.09 197 -999
2008-10-13 09:14:10 51°8.842 2°34.257 200 7.09 197 -999
2008-10-13 09:14:20 51°8.827 2°34.247 200 7.09 197 -999
2008-10-13 09:14:30 51°8.817 2°34.238 200 7.09 197 -999
2008-10-13 09:14:40 51°8.808 2°34.229 200 7.09 197 -999
2008-10-13 09:14:50 51°8.8 2°34.22 200 7.09 197 -999
2008-10-13 09:15:00 51°8.794 2°34.212 222 2.7 221 -999
2008-10-13 09:15:10 51°8.789 2°34.205 222 2.7 221 -999
2008-10-13 09:15:20 51°8.787 2°34.199 222 2.7 221 -999
2008-10-13 09:15:30 51°8.785 2°34.195 222 2.7 221 -999
2008-10-13 09:15:40 51°8.785 2°34.192 222 2.7 221 -999
2008-10-13 09:15:50 51°8.786 2°34.19 222 2.7 221 -999
2008-10-13 09:16:00 51°8.787 2°34.187 262.8 0.59 309 -999
2008-10-13 09:16:10 51°8.788 2°34.185 262.8 0.59 309 -999
2008-10-13 09:16:20 51°8.79 2°34.183 262.8 0.59 309 -999
2008-10-13 09:16:30 51°8.791 2°34.182 262.8 0.59 309 -999
2008-10-13 09:16:40 51°8.793 2°34.181 262.8 0.59 309 -999
2008-10-13 09:16:50 51°8.795 2°34.18 262.8 0.59 309 -999
2008-10-13 09:17:00 51°8.797 2°34.179 274.6 0.69 348 -999
2008-10-13 09:17:10 51°8.799 2°34.179 274.6 0.69 348 -999
2008-10-13 09:17:20 51°8.801 2°34.178 274.6 0.69 348 -999
2008-10-13 09:17:30 51°8.802 2°34.178 274.6 0.69 348 -999
2008-10-13 09:17:40 51°8.805 2°34.178 274.6 0.69 348 -999
2008-10-13 09:17:50 51°8.806 2°34.178 274.6 0.69 348 -999
2008-10-13 09:18:00 51°8.808 2°34.179 271.6 0.59 8 -999
2008-10-13 09:18:10 51°8.81 2°34.179 271.6 0.59 8 -999
2008-10-13 09:18:20 51°8.812 2°34.18 271.6 0.59 8 -999
2008-10-13 09:18:30 51°8.814 2°34.181 271.6 0.59 8 -999
2008-10-13 09:18:40 51°8.815 2°34.182 271.6 0.59 8 -999
2008-10-13 09:18:50 51°8.817 2°34.183 271.6 0.59 8 -999
2008-10-13 09:19:00 51°8.819 2°34.184 266.8 0.69 23 -999
2008-10-13 09:19:10 51°8.821 2°34.185 266.8 0.69 23 -999
2008-10-13 09:19:20 51°8.823 2°34.187 266.8 0.69 23 -999
2008-10-13 09:19:30 51°8.825 2°34.188 266.8 0.69 23 -999
2008-10-13 09:19:40 51°8.827 2°34.19 266.8 0.69 23 -999
2008-10-13 09:19:50 51°8.829 2°34.192 266.8 0.69 23 -999
2008-10-13 09:20:00 51°8.83 2°34.194 264.1 0.8 37 -999
2008-10-13 09:20:10 51°8.832 2°34.196 264.1 0.8 37 -999
2008-10-13 09:20:20 51°8.835 2°34.198 264.1 0.8 37 -999
2008-10-13 09:20:30 51°8.836 2°34.201 264.1 0.8 37 -999
2008-10-13 09:20:40 51°8.838 2°34.203 264.1 0.8 37 -999
2008-10-13 09:20:50 51°8.839 2°34.206 264.1 0.8 37 -999
2008-10-13 09:21:00 51°8.841 2°34.209 262.8 0.9 41 -999
2008-10-13 09:21:10 51°8.842 2°34.212 262.8 0.9 41 -999
2008-10-13 09:21:20 51°8.845 2°34.215 262.8 0.9 41 -999
2008-10-13 09:21:30 51°8.847 2°34.218 262.8 0.9 41 -999
2008-10-13 09:21:40 51°8.849 2°34.22 262.8 0.9 41 -999
2008-10-13 09:21:50 51°8.851 2°34.223 262.8 0.9 41 -999
2008-10-13 09:22:00 51°8.853 2°34.227 263.1 1 44 -999
2008-10-13 09:22:10 51°8.855 2°34.23 263.1 1 44 -999
2008-10-13 09:22:20 51°8.858 2°34.233 263.1 1 44 -999
2008-10-13 09:22:30 51°8.859 2°34.236 263.1 1 44 -999
2008-10-13 09:22:40 51°8.861 2°34.239 263.1 1 44 -999
2008-10-13 09:22:50 51°8.864 2°34.243 263.1 1 44 -999
2008-10-13 09:23:00 51°8.866 2°34.247 264.5 1.1 46 -999
2008-10-13 09:23:10 51°8.868 2°34.251 264.5 1.1 46 -999
2008-10-13 09:23:20 51°8.87 2°34.254 264.5 1.1 46 -999
2008-10-13 09:23:30 51°8.872 2°34.257 264.5 1.1 46 -999
2008-10-13 09:23:40 51°8.874 2°34.261 264.5 1.1 46 -999
2008-10-13 09:23:50 51°8.877 2°34.265 264.5 1.1 46 -999
2008-10-13 09:24:00 51°8.879 2°34.269 267 1.3 47 -999
2008-10-13 09:24:10 51°8.881 2°34.273 267 1.3 47 -999
2008-10-13 09:24:20 51°8.884 2°34.276 267 1.3 47 -999
2008-10-13 09:24:30 51°8.886 2°34.281 267 1.3 47 -999
2008-10-13 09:24:40 51°8.888 2°34.285 267 1.3 47 -999
2008-10-13 09:24:50 51°8.891 2°34.289 267 1.3 47 -999
2008-10-13 09:25:00 51°8.893 2°34.294 269.1 1.3 48 -999
2008-10-13 09:25:10 51°8.896 2°34.298 269.1 1.3 48 -999
2008-10-13 09:25:20 51°8.898 2°34.302 269.1 1.3 48 -999
2008-10-13 09:25:30 51°8.901 2°34.307 269.1 1.3 48 -999
2008-10-13 09:25:40 51°8.904 2°34.311 269.1 1.3 48 -999
2008-10-13 09:25:50 51°8.906 2°34.316 269.1 1.3 48 -999
2008-10-13 09:26:00 51°8.909 2°34.32 272.8 1.39 48 -999
2008-10-13 09:26:10 51°8.911 2°34.325 272.8 1.39 48 -999
2008-10-13 09:26:20 51°8.914 2°34.33 272.8 1.39 48 -999
2008-10-13 09:26:30 51°8.917 2°34.335 272.8 1.39 48 -999
2008-10-13 09:26:40 51°8.919 2°34.34 272.8 1.39 48 -999
2008-10-13 09:26:50 51°8.922 2°34.345 272.8 1.39 48 -999
2008-10-13 09:27:00 51°8.924 2°34.35 276.5 1.5 50 -999
2008-10-13 09:27:10 51°8.927 2°34.355 276.5 1.5 50 -999
2008-10-13 09:27:20 51°8.93 2°34.36 276.5 1.5 50 -999
2008-10-13 09:27:30 51°8.933 2°34.365 276.5 1.5 50 -999
2008-10-13 09:27:40 51°8.935 2°34.37 276.5 1.5 50 -999
2008-10-13 09:27:50 51°8.938 2°34.376 276.5 1.5 50 -999
2008-10-13 09:28:00 51°8.941 2°34.381 281.5 1.6 50 -999
2008-10-13 09:28:10 51°8.944 2°34.387 281.5 1.6 50 -999
2008-10-13 09:28:20 51°8.946 2°34.392 281.5 1.6 50 -999
2008-10-13 09:28:30 51°8.949 2°34.397 281.5 1.6 50 -999
2008-10-13 09:28:40 51°8.952 2°34.403 281.5 1.6 50 -999
2008-10-13 09:28:50 51°8.955 2°34.408 281.5 1.6 50 -999
2008-10-13 09:29:00 51°8.958 2°34.414 286.8 1.6 51 -999
2008-10-13 09:29:10 51°8.961 2°34.42 286.8 1.6 51 -999
2008-10-13 09:29:20 51°8.963 2°34.425 286.8 1.6 51 -999
2008-10-13 09:29:30 51°8.966 2°34.431 286.8 1.6 51 -999
2008-10-13 09:29:40 51°8.969 2°34.437 286.8 1.6 51 -999
2008-10-13 09:29:50 51°8.971 2°34.442 286.8 1.6 51 -999
2008-10-13 09:30:00 51°8.974 2°34.448 291 1.6 53 -999
2008-10-13 09:30:10 51°8.977 2°34.454 291 1.6 53 -999
2008-10-13 09:30:20 51°8.98 2°34.46 291 1.6 53 -999
2008-10-13 09:30:30 51°8.982 2°34.466 291 1.6 53 -999
2008-10-13 09:30:40 51°8.986 2°34.473 291 1.6 53 -999
2008-10-13 09:30:50 51°8.988 2°34.479 291 1.6 53 -999
2008-10-13 09:31:00 51°8.991 2°34.484 293.8 1.5 48 -999
2008-10-13 09:31:10 51°8.994 2°34.486 293.8 1.5 48 -999
2008-10-13 09:31:20 51°8.998 2°34.485 293.8 1.5 48 -999
2008-10-13 09:31:30 51°9 2°34.48 293.8 1.5 48 -999
2008-10-13 09:31:40 51°9 2°34.471 293.8 1.5 48 -999
2008-10-13 09:31:50 51°8.996 2°34.462 293.8 1.5 48 -999
2008-10-13 09:32:00 51°8.989 2°34.452 231.1 3.7 220 -999
2008-10-13 09:32:10 51°8.98 2°34.44 231.1 3.7 220 -999
2008-10-13 09:32:20 51°8.97 2°34.425 231.1 3.7 220 -999
2008-10-13 09:32:30 51°8.959 2°34.406 231.1 3.7 220 -999
2008-10-13 09:32:40 51°8.947 2°34.382 231.1 3.7 220 -999
2008-10-13 09:32:50 51°8.936 2°34.355 231.1 3.7 220 -999
2008-10-13 09:33:00 51°8.924 2°34.326 236.8 8 238 -999
2008-10-13 09:33:10 51°8.913 2°34.296 236.8 8 238 -999
2008-10-13 09:33:20 51°8.903 2°34.269 236.8 8 238 -999
2008-10-13 09:33:30 51°8.896 2°34.251 236.8 8 238 -999
2008-10-13 09:33:40 51°8.891 2°34.234 236.8 8 238 -999
2008-10-13 09:33:50 51°8.888 2°34.222 236.8 8 238 -999
2008-10-13 09:34:00 51°8.887 2°34.212 249.8 1.69 263 -999
2008-10-13 09:34:10 51°8.887 2°34.208 249.8 1.69 263 -999
2008-10-13 09:34:20 51°8.889 2°34.205 249.8 1.69 263 -999
2008-10-13 09:34:30 51°8.89 2°34.202 249.8 1.69 263 -999
2008-10-13 09:34:40 51°8.893 2°34.2 249.8 1.69 263 -999
2008-10-13 09:34:50 51°8.895 2°34.199 249.8 1.69 263 -999
2008-10-13 09:35:00 51°8.898 2°34.197 278.6 1.1 350 -999
2008-10-13 09:35:10 51°8.901 2°34.197 278.6 1.1 350 -999
2008-10-13 09:35:20 51°8.904 2°34.197 278.6 1.1 350 -999
2008-10-13 09:35:30 51°8.907 2°34.198 278.6 1.1 350 -999
2008-10-13 09:35:40 51°8.91 2°34.199 278.6 1.1 350 -999
2008-10-13 09:35:50 51°8.913 2°34.2 278.6 1.1 350 -999
2008-10-13 09:36:00 51°8.917 2°34.202 287 1.3 17 -999
2008-10-13 09:36:10 51°8.92 2°34.203 287 1.3 17 -999
2008-10-13 09:36:20 51°8.923 2°34.206 287 1.3 17 -999
2008-10-13 09:36:30 51°8.926 2°34.207 287 1.3 17 -999
2008-10-13 09:36:40 51°8.929 2°34.209 287 1.3 17 -999
2008-10-13 09:36:50 51°8.932 2°34.212 287 1.3 17 -999
2008-10-13 09:37:00 51°8.935 2°34.214 287 1.3 25 -999
2008-10-13 09:37:10 51°8.939 2°34.217 287 1.3 25 -999
2008-10-13 09:37:20 51°8.942 2°34.219 287 1.3 25 -999
2008-10-13 09:37:30 51°8.945 2°34.222 287 1.3 25 -999
2008-10-13 09:37:40 51°8.948 2°34.225 287 1.3 25 -999
2008-10-13 09:37:50 51°8.951 2°34.228 287 1.3 25 -999
2008-10-13 09:38:00 51°8.954 2°34.231 284.5 1.39 32 -999
2008-10-13 09:38:10 51°8.957 2°34.234 284.5 1.39 32 -999
2008-10-13 09:38:20 51°8.96 2°34.238 284.5 1.39 32 -999
2008-10-13 09:38:30 51°8.963 2°34.241 284.5 1.39 32 -999
2008-10-13 09:38:40 51°8.966 2°34.245 284.5 1.39 32 -999
2008-10-13 09:38:50 51°8.969 2°34.248 284.5 1.39 32 -999
2008-10-13 09:39:00 51°8.972 2°34.252 281.5 1.5 36 -999
2008-10-13 09:39:10 51°8.975 2°34.256 281.5 1.5 36 -999
2008-10-13 09:39:20 51°8.978 2°34.26 281.5 1.5 36 -999
2008-10-13 09:39:30 51°8.981 2°34.264 281.5 1.5 36 -999
2008-10-13 09:39:40 51°8.984 2°34.268 281.5 1.5 36 -999
2008-10-13 09:39:50 51°8.987 2°34.272 281.5 1.5 36 -999
2008-10-13 09:40:00 51°8.99 2°34.277 280.6 1.5 41 -999
2008-10-13 09:40:10 51°8.993 2°34.281 280.6 1.5 41 -999
2008-10-13 09:40:20 51°8.996 2°34.285 280.6 1.5 41 -999
2008-10-13 09:40:30 51°8.999 2°34.289 280.6 1.5 41 -999
2008-10-13 09:40:40 51°9.002 2°34.294 280.6 1.5 41 -999
2008-10-13 09:40:50 51°9.005 2°34.299 280.6 1.5 41 -999
2008-10-13 09:41:00 51°9.008 2°34.303 280.6 1.5 43 -999
2008-10-13 09:41:10 51°9.011 2°34.308 280.6 1.5 43 -999
2008-10-13 09:41:20 51°9.014 2°34.312 280.6 1.5 43 -999
2008-10-13 09:41:30 51°9.017 2°34.317 280.6 1.5 43 -999
2008-10-13 09:41:40 51°9.02 2°34.322 280.6 1.5 43 -999
2008-10-13 09:41:50 51°9.022 2°34.326 280.6 1.5 43 -999
2008-10-13 09:42:00 51°9.026 2°34.331 280.6 1.5 43 -999
2008-10-13 09:42:10 51°9.028 2°34.336 280.6 1.5 43 -999
2008-10-13 09:42:20 51°9.031 2°34.341 280.6 1.5 43 -999
2008-10-13 09:42:30 51°9.034 2°34.345 280.6 1.5 43 -999
2008-10-13 09:42:40 51°9.037 2°34.35 280.6 1.5 43 -999
2008-10-13 09:42:50 51°9.04 2°34.355 280.6 1.5 43 -999
2008-10-13 09:43:00 51°9.043 2°34.36 280.3 1.6 47 -999
2008-10-13 09:43:10 51°9.046 2°34.365 280.3 1.6 47 -999
2008-10-13 09:43:20 51°9.049 2°34.37 280.3 1.6 47 -999
2008-10-13 09:43:30 51°9.052 2°34.373 280.3 1.6 47 -999
2008-10-13 09:43:40 51°9.056 2°34.376 280.3 1.6 47 -999
2008-10-13 09:43:50 51°9.059 2°34.377 280.3 1.6 47 -999
2008-10-13 09:44:00 51°9.062 2°34.379 279.5 1.19 11 -999
2008-10-13 09:44:10 51°9.065 2°34.379 279.5 1.19 11 -999
2008-10-13 09:44:20 51°9.069 2°34.379 279.5 1.19 11 -999
2008-10-13 09:44:30 51°9.072 2°34.379 279.5 1.19 11 -999
2008-10-13 09:44:40 51°9.075 2°34.378 279.5 1.19 11 -999
2008-10-13 09:44:50 51°9.078 2°34.377 279.5 1.19 11 -999
2008-10-13 09:45:00 51°9.081 2°34.376 272.1 1 344 -999
2008-10-13 09:45:10 51°9.084 2°34.375 272.1 1 344 -999
2008-10-13 09:45:20 51°9.087 2°34.374 272.1 1 344 -999
2008-10-13 09:45:30 51°9.089 2°34.372 272.1 1 344 -999
2008-10-13 09:45:40 51°9.092 2°34.37 272.1 1 344 -999
2008-10-13 09:45:50 51°9.094 2°34.368 272.1 1 344 -999
2008-10-13 09:46:00 51°9.096 2°34.366 264.5 0.9 328 -999
2008-10-13 09:46:10 51°9.098 2°34.364 264.5 0.9 328 -999
2008-10-13 09:46:20 51°9.099 2°34.362 264.5 0.9 328 -999
2008-10-13 09:46:30 51°9.101 2°34.36 264.5 0.9 328 -999
2008-10-13 09:46:40 51°9.103 2°34.358 264.5 0.9 328 -999
2008-10-13 09:46:50 51°9.105 2°34.356 264.5 0.9 328 -999
2008-10-13 09:47:00 51°9.106 2°34.354 256.3 0.69 315 -999
2008-10-13 09:47:10 51°9.107 2°34.352 256.3 0.69 315 -999
2008-10-13 09:47:20 51°9.108 2°34.35 256.3 0.69 315 -999
2008-10-13 09:47:30 51°9.109 2°34.348 256.3 0.69 315 -999
2008-10-13 09:47:40 51°9.11 2°34.346 256.3 0.69 315 -999
2008-10-13 09:47:50 51°9.11 2°34.344 256.3 0.69 315 -999
2008-10-13 09:48:00 51°9.111 2°34.342 248.6 0.5 293 -999
2008-10-13 09:48:10 51°9.111 2°34.34 248.6 0.5 293 -999
2008-10-13 09:48:20 51°9.112 2°34.338 248.6 0.5 293 -999
2008-10-13 09:48:30 51°9.112 2°34.336 248.6 0.5 293 -999
2008-10-13 09:48:40 51°9.112 2°34.335 248.6 0.5 293 -999
2008-10-13 09:48:50 51°9.112 2°34.333 248.6 0.5 293 -999
2008-10-13 09:49:00 51°9.112 2°34.332 240.9 0.29 257 -999
2008-10-13 09:49:10 51°9.112 2°34.33 240.9 0.29 257 -999
2008-10-13 09:49:20 51°9.112 2°34.329 240.9 0.29 257 -999
2008-10-13 09:49:30 51°9.112 2°34.327 240.9 0.29 257 -999
2008-10-13 09:49:40 51°9.111 2°34.326 240.9 0.29 257 -999
2008-10-13 09:49:50 51°9.111 2°34.325 240.9 0.29 257 -999
2008-10-13 09:50:00 51°9.11 2°34.324 233.8 0.4 221 -999
2008-10-13 09:50:10 51°9.109 2°34.323 233.8 0.4 221 -999
2008-10-13 09:50:20 51°9.108 2°34.322 233.8 0.4 221 -999
2008-10-13 09:50:30 51°9.107 2°34.321 233.8 0.4 221 -999
2008-10-13 09:50:40 51°9.106 2°34.32 233.8 0.4 221 -999
2008-10-13 09:50:50 51°9.104 2°34.319 233.8 0.4 221 -999
2008-10-13 09:51:00 51°9.103 2°34.319 226.5 0.59 193 -999
2008-10-13 09:51:10 51°9.101 2°34.318 226.5 0.59 193 -999
2008-10-13 09:51:20 51°9.1 2°34.318 226.5 0.59 193 -999
2008-10-13 09:51:30 51°9.098 2°34.318 226.5 0.59 193 -999
2008-10-13 09:51:40 51°9.096 2°34.318 226.5 0.59 193 -999
2008-10-13 09:51:50 51°9.094 2°34.319 226.5 0.59 193 -999
2008-10-13 09:52:00 51°9.092 2°34.319 218.5 0.8 173 -999
2008-10-13 09:52:10 51°9.09 2°34.32 218.5 0.8 173 -999
2008-10-13 09:52:20 51°9.088 2°34.321 218.5 0.8 173 -999
2008-10-13 09:52:30 51°9.086 2°34.322 218.5 0.8 173 -999
2008-10-13 09:52:40 51°9.083 2°34.323 218.5 0.8 173 -999
2008-10-13 09:52:50 51°9.081 2°34.325 218.5 0.8 173 -999
2008-10-13 09:53:00 51°9.079 2°34.326 209.6 1 157 -999
2008-10-13 09:53:10 51°9.076 2°34.328 209.6 1 157 -999
2008-10-13 09:53:20 51°9.073 2°34.33 209.6 1 157 -999
2008-10-13 09:53:30 51°9.071 2°34.333 209.6 1 157 -999
2008-10-13 09:53:40 51°9.067 2°34.335 209.6 1 157 -999
2008-10-13 09:53:50 51°9.064 2°34.338 209.6 1 157 -999
2008-10-13 09:54:00 51°9.059 2°34.341 199.5 1.8 161 -999
2008-10-13 09:54:10 51°9.054 2°34.344 199.5 1.8 161 -999
2008-10-13 09:54:20 51°9.048 2°34.347 199.5 1.8 161 -999
2008-10-13 09:54:30 51°9.04 2°34.35 199.5 1.8 161 -999
2008-10-13 09:54:40 51°9.033 2°34.352 199.5 1.8 161 -999
2008-10-13 09:54:50 51°9.024 2°34.353 199.5 1.8 161 -999
2008-10-13 09:55:00 51°9.016 2°34.352 200.8 3 188 -999
2008-10-13 09:55:10 51°9.008 2°34.349 200.8 3 188 -999
2008-10-13 09:55:20 51°9.001 2°34.344 200.8 3 188 -999
2008-10-13 09:55:30 51°8.994 2°34.338 200.8 3 188 -999
2008-10-13 09:55:40 51°8.987 2°34.33 200.8 3 188 -999
2008-10-13 09:55:50 51°8.98 2°34.322 200.8 3 188 -999
2008-10-13 09:56:00 51°8.975 2°34.313 228 3 227 -999
2008-10-13 09:56:10 51°8.969 2°34.302 228 3 227 -999
2008-10-13 09:56:20 51°8.965 2°34.291 228 3 227 -999
2008-10-13 09:56:30 51°8.961 2°34.28 228 3 227 -999
2008-10-13 09:56:40 51°8.957 2°34.269 228 3 227 -999
2008-10-13 09:56:50 51°8.953 2°34.257 228 3 227 -999
2008-10-13 09:57:00 51°8.949 2°34.245 239.4 3.1 242 -999
2008-10-13 09:57:10 51°8.945 2°34.233 239.4 3.1 242 -999
2008-10-13 09:57:20 51°8.941 2°34.221 239.4 3.1 242 -999
2008-10-13 09:57:30 51°8.937 2°34.209 239.4 3.1 242 -999
2008-10-13 09:57:40 51°8.933 2°34.197 239.4 3.1 242 -999
2008-10-13 09:57:50 51°8.928 2°34.185 239.4 3.1 242 -999
2008-10-13 09:58:00 51°8.924 2°34.173 237.9 3.1 240 -999
2008-10-13 09:58:10 51°8.92 2°34.16 237.9 3.1 240 -999
2008-10-13 09:58:20 51°8.915 2°34.148 237.9 3.1 240 -999
2008-10-13 09:58:30 51°8.911 2°34.136 237.9 3.1 240 -999
2008-10-13 09:58:40 51°8.907 2°34.124 237.9 3.1 240 -999
2008-10-13 09:58:50 51°8.902 2°34.111 237.9 3.1 240 -999
2008-10-13 09:59:00 51°8.898 2°34.099 238.5 3.2 241 -999
2008-10-13 09:59:10 51°8.894 2°34.087 238.5 3.2 241 -999
2008-10-13 09:59:20 51°8.89 2°34.075 238.5 3.2 241 -999
2008-10-13 09:59:30 51°8.885 2°34.063 238.5 3.2 241 -999
2008-10-13 09:59:40 51°8.881 2°34.051 238.5 3.2 241 -999
2008-10-13 09:59:50 51°8.877 2°34.039 238.5 3.2 241 -999
2008-10-13 10:00:00 51°8.873 2°34.027 238.1 3.1 243 -999
2008-10-13 10:00:10 51°8.869 2°34.014 238.1 3.1 243 -999
2008-10-13 10:00:20 51°8.865 2°34.002 238.1 3.1 243 -999
2008-10-13 10:00:30 51°8.861 2°33.99 238.1 3.1 243 -999
2008-10-13 10:00:40 51°8.857 2°33.978 238.1 3.1 243 -999
2008-10-13 10:00:50 51°8.853 2°33.966 238.1 3.1 243 -999
2008-10-13 10:01:00 51°8.849 2°33.954 238.5 3.1 243 -999
2008-10-13 10:01:10 51°8.845 2°33.942 238.5 3.1 243 -999
2008-10-13 10:01:20 51°8.841 2°33.93 238.5 3.1 243 -999
2008-10-13 10:01:30 51°8.837 2°33.918 238.5 3.1 243 -999
2008-10-13 10:01:40 51°8.833 2°33.906 238.5 3.1 243 -999
2008-10-13 10:01:50 51°8.83 2°33.894 238.5 3.1 243 -999
2008-10-13 10:02:00 51°8.826 2°33.883 238.1 3 242 -999
2008-10-13 10:02:10 51°8.822 2°33.871 238.1 3 242 -999
2008-10-13 10:02:20 51°8.818 2°33.859 238.1 3 242 -999
2008-10-13 10:02:30 51°8.814 2°33.848 238.1 3 242 -999
2008-10-13 10:02:40 51°8.81 2°33.836 238.1 3 242 -999
2008-10-13 10:02:50 51°8.806 2°33.824 238.1 3 242 -999
2008-10-13 10:03:00 51°8.803 2°33.812 238.4 3 242 -999
2008-10-13 10:03:10 51°8.799 2°33.801 238.4 3 242 -999
2008-10-13 10:03:20 51°8.795 2°33.789 238.4 3 242 -999
2008-10-13 10:03:30 51°8.791 2°33.777 238.4 3 242 -999
2008-10-13 10:03:40 51°8.787 2°33.766 238.4 3 242 -999
2008-10-13 10:03:50 51°8.783 2°33.754 238.4 3 242 -999
2008-10-13 10:04:00 51°8.78 2°33.742 238.5 3 243 -999
2008-10-13 10:04:10 51°8.776 2°33.731 238.5 3 243 -999
2008-10-13 10:04:20 51°8.772 2°33.719 238.5 3 243 -999
2008-10-13 10:04:30 51°8.768 2°33.707 238.5 3 243 -999
2008-10-13 10:04:40 51°8.764 2°33.695 238.5 3 243 -999
2008-10-13 10:04:50 51°8.76 2°33.684 238.5 3 243 -999
2008-10-13 10:05:00 51°8.756 2°33.672 238 3 241 -999
2008-10-13 10:05:10 51°8.752 2°33.66 238 3 241 -999
2008-10-13 10:05:20 51°8.748 2°33.648 238 3 241 -999
2008-10-13 10:05:30 51°8.744 2°33.636 238 3 241 -999
2008-10-13 10:05:40 51°8.74 2°33.624 238 3 241 -999
2008-10-13 10:05:50 51°8.736 2°33.612 238 3 241 -999
2008-10-13 10:06:00 51°8.733 2°33.6 238.5 3 243 -999
2008-10-13 10:06:10 51°8.729 2°33.588 238.5 3 243 -999
2008-10-13 10:06:20 51°8.725 2°33.576 238.5 3 243 -999
2008-10-13 10:06:30 51°8.721 2°33.565 238.5 3 243 -999
2008-10-13 10:06:40 51°8.717 2°33.553 238.5 3 243 -999
2008-10-13 10:06:50 51°8.714 2°33.541 238.5 3 243 -999
2008-10-13 10:07:00 51°8.71 2°33.53 238.5 3 243 -999
2008-10-13 10:07:10 51°8.706 2°33.518 238.5 3 243 -999
2008-10-13 10:07:20 51°8.703 2°33.506 238.5 3 243 -999
2008-10-13 10:07:30 51°8.699 2°33.495 238.5 3 243 -999
2008-10-13 10:07:40 51°8.695 2°33.483 238.5 3 243 -999
2008-10-13 10:07:50 51°8.691 2°33.471 238.5 3 243 -999
2008-10-13 10:08:00 51°8.687 2°33.46 238.1 3 243 -999
2008-10-13 10:08:10 51°8.684 2°33.448 238.1 3 243 -999
2008-10-13 10:08:20 51°8.68 2°33.436 238.1 3 243 -999
2008-10-13 10:08:30 51°8.676 2°33.425 238.1 3 243 -999
2008-10-13 10:08:40 51°8.672 2°33.413 238.1 3 243 -999
2008-10-13 10:08:50 51°8.668 2°33.401 238.1 3 243 -999
2008-10-13 10:09:00 51°8.665 2°33.389 238.5 3 243 -999
2008-10-13 10:09:10 51°8.661 2°33.377 238.5 3 243 -999
2008-10-13 10:09:20 51°8.657 2°33.365 238.5 3 243 -999
2008-10-13 10:09:30 51°8.653 2°33.354 238.5 3 243 -999
2008-10-13 10:09:40 51°8.649 2°33.342 238.5 3 243 -999
2008-10-13 10:09:50 51°8.646 2°33.33 238.5 3 243 -999
2008-10-13 10:10:00 51°8.642 2°33.318 238.3 3 245 -999
2008-10-13 10:10:10 51°8.638 2°33.307 238.3 3 245 -999
2008-10-13 10:10:20 51°8.635 2°33.295 238.3 3 245 -999
2008-10-13 10:10:30 51°8.631 2°33.284 238.3 3 245 -999
2008-10-13 10:10:40 51°8.627 2°33.273 238.3 3 245 -999
2008-10-13 10:10:50 51°8.623 2°33.261 238.3 3 245 -999
2008-10-13 10:11:00 51°8.619 2°33.251 235.4 2.89 239 -999
2008-10-13 10:11:10 51°8.615 2°33.24 235.4 2.89 239 -999
2008-10-13 10:11:20 51°8.612 2°33.228 235.4 2.89 239 -999
2008-10-13 10:11:30 51°8.61 2°33.216 235.4 2.89 239 -999
2008-10-13 10:11:40 51°8.609 2°33.203 235.4 2.89 239 -999
2008-10-13 10:11:50 51°8.609 2°33.191 235.4 2.89 239 -999
2008-10-13 10:12:00 51°8.608 2°33.178 253.1 2.89 269 -999
2008-10-13 10:12:10 51°8.608 2°33.165 253.1 2.89 269 -999
2008-10-13 10:12:20 51°8.608 2°33.152 253.1 2.89 269 -999
2008-10-13 10:12:30 51°8.607 2°33.139 253.1 2.89 269 -999
2008-10-13 10:12:40 51°8.606 2°33.127 253.1 2.89 269 -999
2008-10-13 10:12:50 51°8.606 2°33.114 253.1 2.89 269 -999
2008-10-13 10:13:00 51°8.606 2°33.101 253.9 3 276 -999
2008-10-13 10:13:10 51°8.608 2°33.087 253.9 3 276 -999
2008-10-13 10:13:20 51°8.61 2°33.074 253.9 3 276 -999
2008-10-13 10:13:30 51°8.613 2°33.061 253.9 3 276 -999
2008-10-13 10:13:40 51°8.616 2°33.048 253.9 3 276 -999
2008-10-13 10:13:50 51°8.62 2°33.035 253.9 3 276 -999
2008-10-13 10:14:00 51°8.625 2°33.022 273.5 3.39 299 -999
2008-10-13 10:14:10 51°8.63 2°33.009 273.5 3.39 299 -999
2008-10-13 10:14:20 51°8.635 2°32.996 273.5 3.39 299 -999
2008-10-13 10:14:30 51°8.641 2°32.983 273.5 3.39 299 -999
2008-10-13 10:14:40 51°8.648 2°32.971 273.5 3.39 299 -999
2008-10-13 10:14:50 51°8.655 2°32.959 273.5 3.39 299 -999
2008-10-13 10:15:00 51°8.663 2°32.947 288.8 4 321 -999
2008-10-13 10:15:10 51°8.672 2°32.937 288.8 4 321 -999
2008-10-13 10:15:20 51°8.683 2°32.929 288.8 4 321 -999
2008-10-13 10:15:30 51°8.694 2°32.924 288.8 4 321 -999
2008-10-13 10:15:40 51°8.703 2°32.921 288.8 4 321 -999
2008-10-13 10:15:50 51°8.713 2°32.918 288.8 4 321 -999
2008-10-13 10:16:00 51°8.723 2°32.917 323.1 3.39 356 -999
2008-10-13 10:16:10 51°8.732 2°32.917 323.1 3.39 356 -999
2008-10-13 10:16:20 51°8.741 2°32.917 323.1 3.39 356 -999
2008-10-13 10:16:30 51°8.749 2°32.917 323.1 3.39 356 -999
2008-10-13 10:16:40 51°8.758 2°32.918 323.1 3.39 356 -999
2008-10-13 10:16:50 51°8.766 2°32.919 323.1 3.39 356 -999
2008-10-13 10:17:00 51°8.773 2°32.921 326.1 2.79 7 -999
2008-10-13 10:17:10 51°8.781 2°32.922 326.1 2.79 7 -999
2008-10-13 10:17:20 51°8.788 2°32.924 326.1 2.79 7 -999
2008-10-13 10:17:30 51°8.795 2°32.925 326.1 2.79 7 -999
2008-10-13 10:17:40 51°8.801 2°32.927 326.1 2.79 7 -999
2008-10-13 10:17:50 51°8.807 2°32.929 326.1 2.79 7 -999
2008-10-13 10:18:00 51°8.813 2°32.931 319.3 2.2 11 -999
2008-10-13 10:18:10 51°8.819 2°32.933 319.3 2.2 11 -999
2008-10-13 10:18:20 51°8.825 2°32.934 319.3 2.2 11 -999
2008-10-13 10:18:30 51°8.83 2°32.936 319.3 2.2 11 -999
2008-10-13 10:18:40 51°8.835 2°32.939 319.3 2.2 11 -999
2008-10-13 10:18:50 51°8.84 2°32.941 319.3 2.2 11 -999
2008-10-13 10:19:00 51°8.845 2°32.943 307.8 1.8 18 -999
2008-10-13 10:19:10 51°8.85 2°32.945 307.8 1.8 18 -999
2008-10-13 10:19:20 51°8.854 2°32.948 307.8 1.8 18 -999
2008-10-13 10:19:30 51°8.858 2°32.95 307.8 1.8 18 -999
2008-10-13 10:19:40 51°8.862 2°32.953 307.8 1.8 18 -999
2008-10-13 10:19:50 51°8.866 2°32.956 307.8 1.8 18 -999
2008-10-13 10:20:00 51°8.87 2°32.958 296.6 1.5 25 -999
2008-10-13 10:20:10 51°8.874 2°32.961 296.6 1.5 25 -999
2008-10-13 10:20:20 51°8.877 2°32.964 296.6 1.5 25 -999
2008-10-13 10:20:30 51°8.882 2°32.966 296.6 1.5 25 -999
2008-10-13 10:20:40 51°8.887 2°32.964 296.6 1.5 25 -999
2008-10-13 10:20:50 51°8.894 2°32.962 296.6 1.5 25 -999
2008-10-13 10:21:00 51°8.903 2°32.96 314.3 3.5 353 -999
2008-10-13 10:21:10 51°8.914 2°32.959 314.3 3.5 353 -999
2008-10-13 10:21:20 51°8.926 2°32.962 314.3 3.5 353 -999
2008-10-13 10:21:30 51°8.938 2°32.969 314.3 3.5 353 -999
2008-10-13 10:21:40 51°8.951 2°32.98 314.3 3.5 353 -999
2008-10-13 10:21:50 51°8.962 2°32.995 314.3 3.5 353 -999
2008-10-13 10:22:00 51°8.972 2°33.013 40.6 5.5 52 -999
2008-10-13 10:22:10 51°8.98 2°33.035 40.6 5.5 52 -999
2008-10-13 10:22:20 51°8.984 2°33.058 40.6 5.5 52 -999
2008-10-13 10:22:30 51°8.986 2°33.082 40.6 5.5 52 -999
2008-10-13 10:22:40 51°8.986 2°33.105 40.6 5.5 52 -999
2008-10-13 10:22:50 51°8.982 2°33.127 40.6 5.5 52 -999
2008-10-13 10:23:00 51°8.977 2°33.146 126.7 4.7 118 -999
2008-10-13 10:23:10 51°8.969 2°33.162 126.7 4.7 118 -999
2008-10-13 10:23:20 51°8.961 2°33.175 126.7 4.7 118 -999
2008-10-13 10:23:30 51°8.954 2°33.186 126.7 4.7 118 -999
2008-10-13 10:23:40 51°8.947 2°33.196 126.7 4.7 118 -999
2008-10-13 10:23:50 51°8.941 2°33.205 126.7 4.7 118 -999
2008-10-13 10:24:00 51°8.934 2°33.213 169.3 3 137 -999
2008-10-13 10:24:10 51°8.928 2°33.222 169.3 3 137 -999
2008-10-13 10:24:20 51°8.923 2°33.23 169.3 3 137 -999
2008-10-13 10:24:30 51°8.917 2°33.238 169.3 3 137 -999
2008-10-13 10:24:40 51°8.912 2°33.245 169.3 3 137 -999
2008-10-13 10:24:50 51°8.906 2°33.253 169.3 3 137 -999
2008-10-13 10:25:00 51°8.901 2°33.259 178.8 2.39 140 -999
2008-10-13 10:25:10 51°8.897 2°33.266 178.8 2.39 140 -999
2008-10-13 10:25:20 51°8.892 2°33.272 178.8 2.39 140 -999
2008-10-13 10:25:30 51°8.887 2°33.277 178.8 2.39 140 -999
2008-10-13 10:25:40 51°8.883 2°33.283 178.8 2.39 140 -999
2008-10-13 10:25:50 51°8.879 2°33.288 178.8 2.39 140 -999
2008-10-13 10:26:00 51°8.875 2°33.294 187.1 1.89 141 -999
2008-10-13 10:26:10 51°8.871 2°33.299 187.1 1.89 141 -999
2008-10-13 10:26:20 51°8.867 2°33.304 187.1 1.89 141 -999
2008-10-13 10:26:30 51°8.863 2°33.309 187.1 1.89 141 -999
2008-10-13 10:26:40 51°8.859 2°33.313 187.1 1.89 141 -999
2008-10-13 10:26:50 51°8.855 2°33.318 187.1 1.89 141 -999
2008-10-13 10:27:00 51°8.851 2°33.322 194.3 1.6 145 -999
2008-10-13 10:27:10 51°8.848 2°33.326 194.3 1.6 145 -999
2008-10-13 10:27:20 51°8.845 2°33.329 194.3 1.6 145 -999
2008-10-13 10:27:30 51°8.841 2°33.332 194.3 1.6 145 -999
2008-10-13 10:27:40 51°8.839 2°33.335 194.3 1.6 145 -999
2008-10-13 10:27:50 51°8.836 2°33.337 194.3 1.6 145 -999
2008-10-13 10:28:00 51°8.833 2°33.34 207.4 1.1 150 -999
2008-10-13 10:28:10 51°8.83 2°33.342 207.4 1.1 150 -999
2008-10-13 10:28:20 51°8.828 2°33.345 207.4 1.1 150 -999
2008-10-13 10:28:30 51°8.825 2°33.347 207.4 1.1 150 -999
2008-10-13 10:28:40 51°8.823 2°33.35 207.4 1.1 150 -999
2008-10-13 10:28:50 51°8.82 2°33.353 207.4 1.1 150 -999
2008-10-13 10:29:00 51°8.817 2°33.355 206.4 1.19 147 -999